Location: Saint-Gilles les Bains
(21.0539°S, 55.2287°E)
Time: 22:06:50
(UTC+04:00)

Hubble Space Telescope - Pass Details

Date: 26 June 2021
Orbit: 535 x 539 km, 28.5° (Epoch: 25 July)

Event Time Altitude Azimuth Distance (km) Brightness Sun altitude
Rises 19:46:08 0° 317° (NW) 2,660 5.2 -26.7°
Reaches altitude 10° 19:48:37 10° 329° (NNW) 1,775 4.0 -27.3°
Enters shadow 19:50:23 20° 348° (NNW) 1,257 2.9 -27.7°
